Flag Weather past 2 weeks in Manado, North Sulawesi, Indonesia

Now
86 °F

Scattered clouds.


Feels Like: 97 °F
Forecast: 77 / 87 °F
Wind: 8 mph from Northeast

Location: Menado / Dr. Sam Ratulangi

Current Time: Nov 24, 2014 at 1:38:58 PM

Latest Report: Nov 24, 2014 at 1:00 PM


Visibility: 6 mi

Pressure: 29.74 "Hg

Humidity: 75%

Dew point: 77 °F

Location of ManadoLocation

Historic Weather in Manado — Graph

°F

Manado temperature yesterday

Maximum temperature yesterday: 90 °F (at 8:30 AM)
Minimum temperature yesterday: 73 °F (at 2:00 AM)
Average temperature yesterday: 82 °F

Past Weeks' High & Low Weather Summary

 TemperatureHumidityPressure
High91 °F (Nov 10, 10:30 AM)100% (Nov 10, 5:00 AM)29.89 "Hg (Nov 10, 5:00 AM)
Low72 °F (Nov 10, 5:00 AM)24% (Nov 16, 5:00 PM)29.71 "Hg (Nov 16, 2:00 PM)
Average80 °F83%29.81 "Hg
* Reported Nov 9 12:00 Noon — Nov 24 12:30 PM, Manado, Weather by CustomWeather, © 2014

Note: Actual official high and low records may vary slightly from our data, if they occured in-between our weather recording intervals... More about our weather records

Advertising

Manado weather history for previous 24 hours

 ConditionsComfort  
Time TempWeatherWind HumidityBarometerVisibility
12:30 PM
Nov 24
84 °FLight rain. Scattered clouds.3 mph70%29.77 "Hg6 mi
12:00 PM84 °FScattered clouds.5 mph79%29.77 "Hg6 mi
11:30 AM88 °FScattered clouds.5 mph70%29.77 "HgN/A
11:00 AM88 °FScattered clouds.6 mph66%29.80 "HgN/A
10:30 AM90 °FScattered clouds.5 mph63%29.80 "HgN/A
10:00 AM88 °FScattered clouds.3 mph66%29.80 "HgN/A
9:30 AM88 °FPassing clouds.3 mph66%29.83 "HgN/A
9:00 AM88 °FPassing clouds.1 mph66%29.83 "HgN/A
8:30 AM86 °FPassing clouds.No wind75%29.83 "HgN/A
8:00 AM84 °FPassing clouds.1 mph79%29.83 "HgN/A
7:00 AM81 °FPassing clouds.5 mph84%29.83 "Hg6 mi
6:30 AM79 °FPassing clouds.5 mph89%29.83 "Hg6 mi
6:00 AM77 °FLight rain. Scattered clouds.3 mph94%29.80 "Hg6 mi
5:30 AM77 °FScattered clouds.No wind94%29.80 "Hg6 mi
5:00 AM77 °FPassing clouds.1 mph89%29.80 "Hg6 mi
3:00 AM75 °FPassing clouds.2 mph94%29.77 "Hg6 mi
2:00 AM75 °FPassing clouds.1 mph94%29.80 "Hg6 mi
11:00 PM
Nov 23
77 °FPassing clouds.1 mph94%29.83 "Hg6 mi
10:30 PM77 °FPassing clouds.1 mph94%29.83 "Hg6 mi
10:00 PM77 °FPassing clouds.1 mph94%29.83 "Hg6 mi
9:30 PM79 °FPassing clouds.3 mph89%29.83 "Hg6 mi
9:00 PM77 °FPassing clouds.2 mph94%29.83 "Hg6 mi
8:30 PM79 °FPassing clouds.1 mph89%29.83 "Hg6 mi
8:00 PM79 °FPassing clouds.1 mph89%29.83 "Hg6 mi
7:30 PM81 °FPassing clouds.2 mph84%29.83 "HgN/A
7:00 PM81 °FPassing clouds.2 mph84%29.80 "HgN/A
6:30 PM81 °FPassing clouds.2 mph84%29.77 "HgN/A
6:00 PM82 °FPassing clouds.2 mph79%29.77 "HgN/A
5:30 PM84 °FPassing clouds.3 mph74%29.77 "HgN/A
5:00 PM84 °FPassing clouds.7 mph74%29.77 "HgN/A
4:30 PM84 °FScattered clouds.7 mph74%29.74 "HgN/A
4:00 PM86 °FScattered clouds.9 mph70%29.74 "HgN/A
3:30 PM90 °FScattered clouds.6 mph63%29.74 "HgN/A
3:00 PM88 °FScattered clouds.7 mph66%29.74 "HgN/A
2:30 PM90 °FScattered clouds.2 mph67%29.74 "HgN/A
2:00 PM86 °FScattered clouds.5 mph79%29.77 "HgN/A
1:30 PM88 °FScattered clouds.5 mph75%29.77 "Hg6 mi
1:00 PM88 °FScattered clouds.7 mph66%29.77 "Hg6 mi
Weather by CustomWeather, © 2014

See weather overviewHow to use our weather pages